Simultaneous Nadir Overpasses (SNOs) Predictions

Prediction of SNOs between AURA and NPP Satellite Orbit:

Table of predicted SNOs for the next 14.0 days since TLE Epoch: 7/1/2022
Index Date (AURA) Time (AURA) Lat,Lon (AURA) SZA (AURA ) Date (NPP) Time (NPP) Lat,Lon (NPP) SZA (NPP ) Distance(km) Time Diff (sec)
1 07/04/2022 11:25:32 79.32, -95.72 70.38 07/04/2022 11:24:51 79.32, -95.74 70.41 0.42 41
2 07/04/2022 12:14:51 -79.63, 74.05 110.08 07/04/2022 12:15:27 -79.64, 74.15 110.13 1.99 36
3 07/07/2022 03:41:58 79.42, 20.84 70.51 07/07/2022 03:41:46 79.43, 20.82 70.52 0.41 12
4 07/07/2022 04:31:18 -79.70,-169.60 109.90 07/07/2022 04:32:23 -79.70,-169.52 109.97 1.93 65
5 07/09/2022 19:09:03 -79.34, -31.51 109.05 07/09/2022 19:08:02 -79.34, -31.37 109.03 3.12 61
6 07/09/2022 19:58:23 79.55, 137.62 70.63 07/09/2022 19:58:40 79.56, 137.66 70.61 0.68 17
7 07/12/2022 11:25:31 -79.35, 84.44 108.70 07/12/2022 11:25:00 -79.34, 84.38 108.67 1.42 31
8 07/12/2022 12:14:48 79.67,-105.63 70.81 07/12/2022 12:15:34 79.68,-105.50 70.76 2.70 46
9 07/15/2022 03:41:54 -79.50,-158.63 108.53 07/15/2022 03:41:52 -79.51,-158.56 108.54 1.43 2



Historial Predications of SNOs between AURA and NPP
